Terminal Aerodrome Forecast
Issued by NWS

Home | Current Version | Previous Version | Text Only | Print | Product List | Glossary On
Versions: 1 2 3 4 5 6 7 8 9 10 11 12 13 14 15 16 17 18
000
FTUS42 TJSJ 230155 AAB
TAFJBQ
TAF AMD
TJBQ 230155Z 2302/2324 09015KT P6SM VCSH SCT030 BKN060
      TEMPO 2302/2303 BKN025
     FM231400 08020G30KT P6SM SCT030 SCT050
     FM232300 09014KT P6SM VCSH SCT030
      AMD NOT SKED TIL 231100=

USA.gov is the U.S. government's official web portal to all federal, state and local government web resources and services.